Temp
5 5 4 4 5 5 5 5 5 5 5 5 5 5 5 5 5 5 5 5 5 5 5 5 5 5 5 5 5 5 5 5 5 5 5 5 5 5 5 5 6 6 6 6 6 6 6 6 6 6 7 7 7 7 7 7 7 7 7 7 7 7 7 6 6 6 6 6 6 6 6 6 6 6 6 5 5 5 4 4 4 4 4 4 4
4 5 5 5 5 4 5 5 5 5 5 5 5 5 5 5 5 5 4 4 4 5 5 5 5 5 5 5 5 5 5 5 5 5 5 5 5 5 5 5 5 6 6 6 6 6 6 6 6 6 7 7 7 7 7 7 7 7 7 7 7 7 7 7 7 6 6 6 6 6 6 6 6 6 6 5 5 5 4 4 4 4 4 4 4
4 4 4 4 4 4 4 5 5 5 5 5 5 5 5 5 5 5 4 4 4 4 5 5 5 5 5 5 5 5 5 5 5 5 5 5 5 5 5 5 5 5 6 6 6 6 6 6 6 6 7 7 7 7 7 7 7 7 7 7 7 7 7 7 7 6 6 6 6 6 6 6 6 6 5 5 5 5 4 4 4 4 4 4 4
4 4 4 4 4 4 4 4 4 5 5 5 5 5 5 5 5 5 4 4 4 4 5 5 5 5 5 5 5 5 5 5 5 5 5 5 5 5 5 5 5 5 5 5 5 6 6 6 6 6 7 7 7 7 7 7 7 7 7 7 7 7 7 7 7 7 6 6 6 6 6 6 6 5 5 5 5 5 4 4 4 4 4 4 4
4 4 4 4 4 4 4 4 4 4 5 5 5 5 5 5 5 4 4 4 4 4 4 5 5 5 5 5 5 5 5 5 5 5 5 5 5 5 5 5 5 5 5 5 5 5 6 6 6 6 7 7 7 7 7 7 7 7 7 7 7 7 7 7 7 6 6 6 6 6 6 6 5 5 5 5 5 5 5 4 4 4 4 4 4
4 4 4 4 4 4 4 4 4 4 5 5 5 5 5 5 5 4 4 4 4 4 4 4 5 5 5 5 5 5 5 5 5 5 5 5 5 5 5 5 5 5 5 5 5 5 5 6 6 6 6 7 7 7 7 7 7 7 7 7 7 7 7 7 7 6 6 6 6 6 6 6 5 5 5 5 5 5 4 4 4 4 4 4 4
4 3 3 4 4 4 4 4 4 4 4 5 5 5 5 5 4 4 4 4 4 4 4 4 4 5 5 5 5 5 5 5 5 5 5 5 5 5 5 5 5 5 5 5 5 5 5 6 6 6 6 6 7 7 7 7 7 7 7 7 7 7 7 7 6 6 6 6 6 6 6 5 5 5 5 5 5 5 5 4 4 4 4 4 4
4 3 3 4 4 4 4 4 4 4 4 4 5 5 5 5 4 4 4 4 4 4 4 4 4 4 5 5 5 5 5 5 5 5 5 5 5 5 5 5 5 5 5 5 5 5 5 6 6 6 6 6 7 7 7 7 7 7 7 7 7 7 6 6 6 6 6 6 6 6 6 5 5 5 5 5 5 5 5 5 5 4 4 4 4
4 3 4 4 4 4 4 4 4 4 4 4 4 4 5 5 4 4 4 4 4 4 3 4 4 4 5 5 5 5 5 5 5 5 5 5 5 5 5 5 5 5 5 5 5 5 5 5 6 6 6 6 6 7 7 7 7 7 7 7 6 6 6 6 6 6 6 6 6 6 6 5 5 5 5 5 5 5 5 5 5 5 5 4 4
4 3 3 4 4 4 4 4 4 4 4 4 4 4 4 5 4 4 4 3 4 4 4 3 4 4 4 5 5 5 5 5 5 5 5 5 5 5 5 5 5 5 4 4 5 5 5 5 5 6 6 6 6 6 7 7 7 7 7 6 6 6 6 6 6 6 6 6 6 6 6 5 5 5 5 5 5 5 5 5 5 5 5 4 5
4 3 3 3 3 4 4 4 4 4 4 3 4 4 4 4 4 4 4 3 4 4 4 3 3 4 4 5 5 5 5 5 5 5 5 5 5 5 5 5 5 5 5 4 5 5 5 5 5 5 6 6 6 6 6 7 7 6 6 6 6 6 6 6 6 6 6 6 6 6 5 5 5 5 5 5 5 5 5 5 5 5 5 5 5
3 3 3 3 3 3 4 4 4 4 4 3 4 4 5 4 4 4 4 4 4 4 4 4 3 4 4 4 5 5 5 5 5 5 5 5 5 5 5 5 5 5 5 5 5 5 5 5 5 5 5 6 6 6 6 6 6 6 6 6 6 6 6 6 6 6 6 6 6 6 6 5 5 5 5 5 5 5 5 5 5 5 5 5 5
3 3 3 3 3 3 4 4 4 4 4 3 3 4 4 4 4 4 4 4 4 4 4 4 4 4 4 4 4 5 5 5 5 5 5 5 5 5 5 5 5 5 5 5 5 5 5 5 5 5 5 5 6 6 6 6 6 6 6 6 6 6 6 6 6 6 6 6 6 6 6 6 5 5 5 5 5 5 5 5 5 5 5 5 5
3 3 3 3 3 3 3 4 4 4 4 3 3 3 4 4 4 4 4 4 4 4 4 4 4 4 4 4 4 4 5 5 5 5 5 5 5 5 5 5 5 5 5 5 5 5 5 5 5 5 5 5 5 6 6 6 6 6 6 6 6 6 6 6 6 6 6 6 6 6 6 6 5 5 5 5 5 5 5 5 5 5 5 5 5
3 3 3 3 3 3 3 3 3 4 4 4 4 4 4 4 5 4 4 4 4 4 4 4 4 4 4 4 4 4 5 5 5 5 5 5 5 5 5 5 5 5 5 5 5 5 5 5 5 5 5 5 5 5 6 6 6 6 6 6 6 6 6 6 6 6 6 6 6 6 6 6 6 5 5 5 5 5 5 5 5 5 5 5 5
2 3 3 3 3 3 3 3 3 4 4 4 4 4 4 4 4 4 4 4 4 4 4 4 4 4 4 5 4 4 4 5 5 5 5 5 5 5 5 5 5 5 5 5 5 5 5 5 5 5 5 5 5 5 5 6 6 6 6 6 6 6 6 6 6 6 6 6 6 6 6 6 6 6 5 5 5 5 5 5 5 5 5 5 5
2 2 3 3 3 3 3 3 3 4 4 4 4 4 4 4 4 4 4 4 4 4 4 4 4 4 4 5 5 4 4 5 5 5 5 5 5 5 5 5 5 5 5 5 5 5 5 5 5 5 5 5 5 5 5 5 5 6 6 6 6 6 6 6 6 6 6 6 6 6 6 6 6 6 5 5 5 5 5 5 5 5 5 5 5
2 2 2 2 3 3 3 3 3 4 4 4 4 4 4 4 4 4 4 4 4 4 4 4 4 4 4 5 5 4 4 4 5 5 5 5 5 5 5 5 5 5 5 5 5 5 5 5 5 5 5 5 5 5 5 5 5 5 6 6 6 6 6 6 6 6 5 5 5 5 5 5 5 5 5 5 5 5 5 5 5 5 5 5 5
1 2 2 2 2 2 3 3 3 4 4 4 4 4 4 4 4 4 4 4 4 4 4 4 4 4 4 5 4 4 5 5 4 4 5 5 5 5 5 5 5 5 5 5 5 5 5 5 5 5 5 5 5 5 5 5 5 5 5 5 6 6 6 6 6 5 5 5 5 5 5 5 5 5 5 5 5 5 5 5 5 5 5 5 5
1 1 2 2 2 2 2 3 3 3 3 3 4 4 4 4 4 4 4 4 4 4 4 4 4 4 4 4 4 4 5 5 4 4 4 5 5 5 4 5 5 5 5 5 5 5 5 5 5 5 5 5 5 5 5 5 5 5 5 5 5 6 6 6 5 5 5 5 5 5 5 5 5 5 5 5 5 5 5 5 5 5 5 5 5
0 1 1 1 1 1 2 2 3 3 3 3 3 3 4 4 4 4 4 4 4 4 4 4 4 4 4 4 4 4 4 5 5 5 5 5 5 4 4 4 4 5 5 5 5 5 5 5 5 5 5 5 5 5 5 5 5 5 5 5 5 5 5 5 5 5 5 5 5 5 5 5 5 5 5 6 5 5 5 5 5 5 5 5 5
1 1 1 1 1 1 2 2 2 3 3 3 3 3 3 4 4 4 4 4 4 4 4 5 5 4 5 5 5 5 5 5 5 5 5 5 4 4 5 5 4 4 5 5 5 5 5 5 5 5 5 5 5 5 5 5 5 5 5 5 5 5 5 5 5 5 5 5 5 5 5 5 5 5 5 6 6 6 6 6 6 5 5 5 5
1 1 1 0 1 1 2 2 2 3 3 3 3 3 3 3 4 4 4 4 4 4 4 4 5 4 4 4 4 5 5 5 5 5 5 5 4 4 4 5 5 5 5 5 5 5 5 5 5 5 5 5 5 5 5 5 5 5 5 5 5 5 5 5 5 5 5 5 5 5 5 5 5 5 6 6 6 6 6 6 6 6 5 5 5
1 1 1 0 0 1 1 2 2 2 2 3 3 3 4 4 4 4 4 4 4 4 4 4 4 4 4 4 4 5 5 5 5 5 5 5 5 5 4 4 4 4 5 5 5 5 5 5 5 5 5 5 5 5 5 5 5 5 5 5 5 5 5 5 5 5 5 5 5 5 5 5 5 6 6 6 6 6 6 6 6 6 6 5 5
1 0 0 0 -0 1 1 1 2 2 2 3 2 3 3 3 4 4 4 4 4 4 4 5 5 4 4 4 4 5 5 5 5 5 5 5 5 5 5 4 4 4 4 5 5 5 5 5 5 5 5 5 5 5 5 5 5 5 6 6 6 6 5 5 5 5 5 5 5 5 5 5 6 6 6 6 6 6 6 6 6 6 6 6 6
0 0 0 -0 -1 0 1 1 2 2 2 3 2 3 3 3 3 4 4 4 4 4 4 5 5 5 4 4 4 4 5 5 5 5 5 5 5 5 5 5 5 5 5 5 5 5 5 5 5 6 5 5 5 5 5 5 5 5 5 6 6 6 6 6 6 5 5 5 5 6 6 6 6 6 6 6 6 6 6 6 6 6 6 6 6
0 0 0 -0 -1 -0 1 1 1 1 2 3 2 2 3 3 3 4 4 4 4 4 4 4 5 5 5 5 4 4 4 4 5 5 5 5 5 5 5 5 5 5 5 5 5 5 5 5 5 6 6 5 5 5 5 6 6 6 6 5 5 6 6 6 6 6 6 6 6 6 6 6 6 6 6 6 6 6 6 6 6 6 6 6 6
0 0 0 0 0 0 0 1 1 1 2 2 2 2 3 3 3 3 3 4 4 4 4 4 5 5 5 5 4 4 4 4 4 5 5 5 5 5 6 5 5 5 5 5 5 5 5 5 5 5 5 5 5 5 5 6 6 6 6 6 5 6 6 6 6 6 6 6 6 6 6 6 6 6 6 6 6 6 6 6 6 6 6 6 6
0 0 -0 0 0 1 0 1 1 1 1 2 3 2 3 3 3 3 3 3 3 3 4 4 4 4 5 5 4 4 4 4 4 4 5 5 5 5 5 5 5 5 5 5 5 5 5 5 5 5 5 5 5 6 5 6 6 6 6 6 6 6 6 6 6 6 6 6 6 6 6 6 6 6 6 6 6 6 6 6 6 6 6 6 6
0 0 0 0 1 1 1 1 1 1 1 2 3 2 2 2 3 3 3 3 3 3 3 4 4 4 4 4 5 4 4 4 4 4 5 5 5 5 5 5 5 5 5 5 5 5 5 5 5 5 5 5 5 5 5 5 6 6 6 6 6 6 6 6 6 6 6 6 6 6 7 7 7 7 6 6 6 6 6 6 6 6 6 6 6
1 0 0 0 1 1 1 0 0 1 1 2 2 2 2 2 3 3 3 3 3 3 3 3 4 4 4 4 4 4 4 4 4 4 4 5 5 5 5 5 5 5 5 5 5 5 5 5 5 5 5 5 5 5 5 5 6 6 6 6 6 6 6 6 6 6 6 6 7 7 7 7 7 7 7 6 6 6 6 6 6 6 6 6 6
1 1 1 1 1 1 0 -0 -0 0 1 1 1 2 2 2 2 3 3 3 3 3 3 3 3 4 4 4 4 4 4 4 4 4 4 5 5 5 5 5 5 5 5 5 6 6 6 5 5 5 5 5 5 5 5 5 6 6 6 6 6 6 6 6 6 6 6 6 7 7 7 7 7 7 7 7 6 6 6 6 6 6 6 6 6
1 1 1 1 1 1 0 -0 -1 -0 0 1 1 2 2 2 2 3 3 3 3 3 3 3 3 4 4 4 4 4 4 4 4 4 4 5 5 5 5 5 5 5 5 5 5 6 6 6 5 5 4 5 5 5 5 5 5 6 6 6 6 6 6 6 6 6 6 6 6 6 7 7 7 7 7 7 7 7 6 6 6 6 6 6 6
2 1 1 1 1 1 0 -0 -1 -0 0 1 1 1 1 2 3 3 3 2 3 3 3 3 3 3 4 4 4 4 4 4 4 4 4 5 5 5 5 5 5 5 5 5 5 6 6 6 6 5 5 5 5 5 5 5 6 6 6 6 6 6 6 6 6 6 6 6 6 6 7 7 7 7 7 7 7 7 7 7 6 6 6 6 6
2 2 2 2 1 1 0 0 -0 0 1 1 1 1 2 2 2 3 2 2 3 3 3 3 3 3 3 3 4 4 4 4 4 4 4 5 5 5 5 5 5 5 5 5 5 5 6 6 6 6 5 5 5 5 5 5 6 6 6 6 6 6 6 6 6 6 6 6 6 6 6 7 7 7 7 7 7 7 7 7 7 7 7 7 7
2 2 2 2 2 1 1 1 1 1 1 1 1 1 1 2 2 2 2 3 3 3 3 3 3 3 3 3 3 4 4 4 4 4 4 4 5 5 5 5 5 5 5 5 5 5 5 6 6 6 6 5 5 5 5 6 6 6 6 6 6 6 6 6 6 6 6 6 6 6 6 6 6 7 7 7 7 7 7 7 7 7 7 7 7
2 2 2 2 2 2 2 1 1 1 1 1 1 1 1 2 2 2 2 2 3 3 3 3 3 4 4 3 3 4 4 4 4 4 4 4 4 4 4 5 5 5 5 5 5 5 5 5 6 6 6 6 6 5 5 6 6 6 6 6 6 6 6 6 6 7 7 7 6 6 6 6 6 6 6 7 7 7 7 7 7 7 7 7 7
2 2 2 2 2 2 2 2 2 1 1 1 1 1 1 1 1 2 2 2 2 2 3 3 3 3 3 4 4 3 4 4 4 4 4 4 4 4 4 4 4 5 5 5 5 5 5 5 5 5 5 6 6 6 6 6 6 6 6 6 6 7 7 7 7 6 7 7 7 7 7 7 6 6 6 7 7 7 7 7 7 7 7 7 7
2 2 2 2 2 2 3 3 2 2 2 2 1 1 1 1 1 2 2 2 2 2 3 3 3 3 3 3 3 3 3 3 4 4 4 4 4 4 4 4 4 4 4 5 5 5 5 5 5 5 5 5 5 6 6 6 6 6 7 7 7 7 7 7 6 6 6 7 7 7 7 7 7 7 7 7 7 7 7 7 7 7 7 7 7
2 2 2 2 3 3 3 3 3 3 2 2 2 1 1 1 1 1 2 2 2 2 2 3 3 3 2 3 3 3 3 3 3 4 4 4 4 4 4 4 4 4 4 4 4 5 5 5 5 5 5 5 5 5 5 5 5 6 6 7 7 6 6 7 6 6 6 6 7 7 7 7 7 7 7 7 7 7 7 7 7 7 7 7 7
1 2 2 2 2 3 3 3 3 3 3 3 2 2 2 1 1 1 1 2 2 2 2 2 2 3 2 2 2 2 3 3 3 3 4 4 4 4 4 4 4 4 4 4 4 4 4 4 5 5 4 4 5 5 5 5 5 5 5 6 6 6 6 6 6 6 6 6 6 6 7 7 7 7 7 7 7 7 7 7 7 7 7 7 7
1 1 1 2 2 2 2 2 3 3 3 3 3 3 2 2 2 2 2 2 2 2 2 2 2 2 2 2 2 2 2 3 3 3 4 4 4 4 4 4 4 4 4 4 4 4 4 4 4 4 4 4 4 4 4 5 5 5 5 5 5 5 5 5 6 6 6 6 6 6 6 6 6 6 7 7 7 7 7 7 7 7 7 7 7
1 1 1 1 2 2 2 2 2 2 3 3 3 3 3 3 3 3 2 2 2 2 2 2 2 2 2 2 2 2 2 3 3 3 3 3 4 4 4 4 4 4 4 4 4 4 4 4 4 4 4 4 4 4 5 5 5 5 5 5 5 5 5 5 5 6 6 6 6 6 6 6 6 6 6 7 7 7 7 7 7 7 7 7 7
1 1 1 1 1 1 2 2 2 2 2 3 3 3 3 3 3 3 3 3 2 2 2 2 2 2 2 2 2 2 2 3 3 3 3 3 3 3 4 4 4 4 4 4 4 4 4 4 4 4 4 4 5 5 5 5 5 4 5 5 5 5 5 5 5 5 5 6 6 6 6 6 6 6 7 7 7 7 7 7 7 7 7 7 7
0 1 1 1 1 1 1 2 2 2 2 2 2 2 3 3 3 3 3 3 3 3 3 2 2 2 2 2 2 2 2 2 2 3 3 3 3 3 3 3 4 4 4 4 4 4 4 4 4 4 4 5 5 5 5 5 4 4 5 5 4 4 4 5 5 5 5 5 5 6 6 6 6 7 7 7 7 7 7 7 7 7 7 7 7
-0 0 0 1 1 1 1 1 2 2 2 2 2 2 2 2 3 3 3 3 3 3 3 3 3 3 2 2 2 2 2 2 2 2 2 3 3 3 3 3 3 4 4 4 4 4 4 4 4 4 4 4 4 4 5 5 4 5 5 5 5 4 4 4 5 5 4 5 5 5 6 6 6 6 7 7 7 7 7 7 7 7 7 7 7
-0 -0 0 0 1 1 1 1 1 2 2 2 2 2 2 2 2 2 2 3 3 3 3 3 3 3 3 3 3 3 3 2 2 2 3 3 3 3 3 3 3 3 4 4 4 4 4 4 4 4 4 4 4 4 4 4 4 5 5 5 5 5 5 5 5 5 5 5 5 5 6 7 6 6 6 7 6 6 7 7 7 7 7 7 7
-1 -0 -0 0 0 0 1 1 1 1 2 2 2 2 2 2 2 2 2 2 2 3 3 3 3 3 3 3 3 3 3 3 3 3 3 3 3 3 3 3 3 3 4 4 4 4 4 4 4 4 4 4 4 4 4 4 4 5 5 5 5 5 5 5 5 5 5 5 5 5 6 7 6 6 6 6 6 6 6 6 7 7 7 7 7
-1 -0 -0 -0 0 0 0 1 1 1 1 1 1 1 2 2 2 2 2 2 2 2 2 3 3 3 3 3 3 3 3 3 3 3 3 3 3 3 3 3 3 3 4 4 4 4 4 4 4 4 4 4 4 4 4 4 4 4 5 5 5 5 5 5 5 5 5 5 5 5 5 6 7 6 6 6 5 5 5 6 7 7 7 7 7
-1 -0 -0 -0 -0 0 0 0 0 1 1 1 1 1 1 1 1 2 2 2 2 2 2 2 2 2 3 3 3 3 3 3 3 3 3 3 4 4 4 4 4 4 4 4 4 4 4 4 4 4 4 4 4 4 4 4 4 4 4 5 5 5 5 5 5 5 5 5 5 5 5 5 6 6 6 6 5 5 5 6 6 6 7 6 6
-1 -1 -0 -0 -0 0 0 0 0 0 0 0 0 1 1 1 1 1 1 1 1 2 2 2 2 2 2 2 2 3 3 3 3 3 3 3 3 4 4 4 4 4 4 4 4 4 4 4 4 4 4 4 4 4 4 4 4 4 4 5 5 5 5 5 5 5 5 5 5 5 5 5 5 6 6 5 5 5 5 5 6 6 6 6 6
Height
3167 3169 3170 3172 3173 3175 3177 3179 3181 3182 3184 3185 3185 3186 3186 3186 3186 3187 3187 3187 3188 3188 3188 3188 3188 3188 3188 3188 3187 3188 3187 3187 3186 3186 3185 3185 3185 3185 3185 3185 3184 3184 3185 3185 3184 3184 3184 3184 3184 3184 3184 3184 3184 3184 3185 3185 3186 3186 3187 3188 3188 3189 3189 3189 3190 3190 3190 3191 3191 3191 3192 3192 3192 3193 3193 3193 3193 3194 3194 3195 3195 3196 3197 3198 3198
3164 3167 3168 3170 3171 3173 3176 3178 3179 3181 3183 3184 3185 3186 3186 3186 3187 3187 3187 3187 3188 3188 3189 3188 3188 3188 3188 3188 3188 3188 3188 3187 3187 3187 3186 3186 3186 3186 3185 3185 3185 3185 3186 3186 3186 3185 3185 3184 3185 3185 3185 3185 3185 3185 3185 3186 3187 3187 3188 3189 3189 3189 3190 3190 3190 3191 3191 3192 3192 3192 3193 3193 3193 3193 3194 3194 3194 3194 3195 3196 3196 3197 3198 3198 3198
3161 3165 3167 3169 3170 3172 3174 3176 3178 3180 3182 3184 3185 3185 3186 3186 3186 3186 3187 3187 3188 3189 3189 3189 3189 3189 3189 3189 3188 3188 3188 3188 3188 3188 3187 3187 3187 3187 3186 3186 3186 3186 3186 3186 3186 3186 3186 3185 3186 3186 3186 3186 3186 3185 3186 3187 3187 3188 3189 3189 3190 3190 3190 3191 3191 3192 3192 3193 3193 3193 3194 3194 3194 3194 3194 3195 3195 3195 3196 3197 3197 3198 3198 3199 3199
3158 3163 3166 3169 3170 3171 3173 3175 3177 3178 3181 3183 3184 3185 3185 3186 3186 3186 3186 3187 3188 3188 3189 3189 3189 3189 3189 3189 3189 3189 3189 3189 3189 3189 3188 3188 3188 3188 3187 3187 3187 3187 3187 3187 3187 3187 3187 3186 3187 3187 3187 3187 3187 3186 3186 3187 3188 3189 3189 3190 3191 3191 3191 3192 3192 3192 3193 3193 3194 3194 3194 3195 3195 3195 3195 3196 3196 3196 3197 3197 3198 3198 3199 3199 3199
3156 3161 3163 3167 3169 3171 3172 3174 3176 3177 3180 3182 3183 3184 3185 3185 3185 3186 3186 3186 3187 3188 3189 3189 3189 3189 3190 3190 3189 3189 3189 3189 3189 3189 3189 3189 3189 3189 3188 3188 3188 3188 3187 3187 3187 3187 3187 3187 3187 3188 3188 3188 3188 3188 3187 3188 3189 3189 3190 3191 3191 3192 3192 3192 3193 3193 3193 3194 3194 3195 3195 3196 3196 3196 3196 3196 3197 3197 3197 3198 3198 3198 3199 3199 3199
3154 3158 3161 3165 3167 3169 3171 3174 3175 3176 3179 3181 3182 3184 3184 3185 3185 3185 3185 3185 3186 3188 3188 3189 3189 3189 3190 3190 3190 3190 3190 3190 3189 3189 3190 3190 3190 3189 3189 3189 3189 3188 3188 3188 3188 3187 3187 3187 3188 3188 3189 3189 3189 3189 3189 3189 3189 3190 3190 3191 3192 3192 3192 3193 3193 3194 3194 3194 3195 3195 3196 3196 3197 3197 3197 3197 3197 3198 3198 3198 3199 3199 3199 3199 3199
3152 3156 3160 3163 3165 3166 3169 3172 3174 3175 3177 3179 3181 3182 3183 3184 3184 3184 3184 3185 3186 3187 3188 3188 3189 3189 3190 3190 3190 3190 3190 3190 3190 3190 3190 3190 3190 3190 3190 3189 3189 3189 3189 3188 3188 3188 3188 3188 3188 3189 3189 3190 3190 3189 3190 3190 3190 3191 3191 3192 3192 3193 3193 3193 3194 3194 3195 3195 3196 3196 3196 3197 3197 3197 3198 3198 3198 3198 3198 3199 3199 3199 3199 3199 3199
3152 3155 3158 3161 3163 3165 3167 3169 3172 3174 3176 3178 3180 3181 3182 3183 3184 3183 3183 3183 3185 3187 3188 3188 3189 3189 3190 3190 3190 3190 3191 3191 3190 3190 3190 3190 3191 3191 3190 3190 3190 3189 3189 3189 3189 3189 3188 3188 3188 3189 3190 3190 3191 3191 3191 3191 3191 3192 3192 3192 3193 3193 3193 3194 3194 3195 3195 3196 3196 3196 3197 3197 3197 3198 3198 3199 3199 3199 3199 3199 3199 3199 3199 3199 3199
3151 3154 3156 3159 3161 3163 3165 3167 3170 3172 3174 3177 3178 3180 3181 3182 3183 3183 3183 3182 3182 3185 3188 3188 3189 3189 3190 3190 3190 3190 3191 3191 3191 3190 3190 3191 3191 3191 3191 3190 3190 3190 3189 3189 3189 3189 3189 3189 3189 3190 3190 3191 3191 3191 3192 3191 3192 3192 3193 3193 3193 3193 3194 3194 3194 3195 3195 3196 3196 3197 3197 3197 3198 3198 3199 3199 3199 3199 3199 3199 3200 3200 3200 3199 3199
3149 3152 3155 3157 3159 3161 3162 3164 3167 3170 3173 3175 3177 3178 3180 3181 3181 3182 3183 3182 3181 3184 3187 3187 3188 3189 3190 3190 3190 3190 3191 3191 3191 3191 3191 3191 3191 3191 3191 3191 3190 3190 3190 3190 3189 3189 3189 3189 3190 3190 3191 3191 3192 3192 3192 3192 3192 3193 3193 3193 3194 3194 3194 3194 3195 3195 3196 3196 3197 3197 3197 3198 3198 3198 3199 3199 3200 3200 3200 3200 3200 3200 3200 3200 3200
3147 3149 3152 3154 3156 3158 3159 3162 3164 3168 3171 3173 3175 3177 3178 3179 3180 3180 3182 3182 3181 3184 3186 3186 3187 3188 3189 3189 3189 3190 3190 3191 3191 3191 3191 3191 3191 3191 3191 3191 3190 3190 3190 3190 3190 3190 3189 3189 3190 3190 3191 3192 3192 3192 3193 3193 3193 3193 3193 3193 3194 3194 3194 3195 3195 3195 3196 3196 3197 3197 3197 3198 3198 3198 3199 3199 3200 3200 3200 3200 3200 3200 3201 3201 3200
3144 3147 3150 3152 3154 3155 3157 3159 3162 3165 3168 3170 3173 3175 3177 3178 3179 3179 3180 3181 3181 3183 3184 3185 3187 3187 3188 3189 3189 3189 3190 3190 3191 3191 3191 3191 3191 3191 3191 3191 3191 3191 3190 3191 3191 3190 3190 3189 3190 3191 3191 3192 3192 3193 3193 3193 3194 3194 3194 3193 3194 3194 3195 3195 3195 3195 3196 3196 3197 3197 3197 3198 3198 3198 3199 3199 3200 3200 3200 3201 3201 3201 3201 3201 3201
3141 3144 3147 3150 3151 3152 3154 3157 3160 3162 3165 3168 3171 3173 3175 3176 3177 3178 3178 3180 3181 3182 3183 3184 3185 3186 3187 3188 3188 3188 3189 3189 3190 3190 3191 3191 3191 3191 3191 3191 3191 3191 3191 3191 3191 3190 3190 3190 3190 3191 3191 3192 3192 3193 3193 3193 3194 3194 3194 3194 3194 3194 3195 3195 3195 3195 3196 3196 3197 3197 3197 3198 3198 3198 3199 3199 3200 3200 3200 3201 3201 3201 3201 3201 3201
3138 3141 3144 3146 3148 3150 3153 3155 3157 3160 3163 3166 3168 3170 3173 3175 3176 3177 3177 3178 3180 3181 3182 3183 3184 3184 3185 3186 3186 3187 3187 3188 3189 3190 3190 3191 3191 3191 3191 3191 3191 3191 3191 3191 3191 3191 3191 3190 3190 3191 3191 3192 3192 3193 3193 3193 3194 3194 3194 3194 3194 3194 3195 3195 3195 3195 3196 3196 3197 3197 3197 3197 3198 3198 3199 3199 3200 3200 3200 3201 3201 3201 3201 3201 3201
3135 3139 3141 3144 3146 3148 3151 3153 3154 3157 3160 3163 3165 3167 3171 3173 3175 3176 3177 3178 3179 3180 3181 3181 3182 3182 3183 3183 3183 3184 3186 3186 3187 3189 3190 3190 3191 3191 3191 3191 3191 3191 3191 3191 3191 3192 3191 3191 3191 3191 3191 3192 3192 3192 3193 3193 3193 3194 3194 3194 3194 3194 3195 3195 3195 3195 3196 3196 3196 3197 3197 3197 3198 3198 3199 3199 3199 3200 3200 3200 3200 3200 3201 3201 3201
3132 3136 3139 3141 3144 3146 3148 3150 3152 3154 3157 3160 3163 3165 3168 3171 3173 3174 3176 3177 3178 3180 3180 3180 3181 3181 3182 3182 3181 3182 3184 3184 3185 3187 3189 3190 3190 3191 3191 3191 3191 3191 3191 3192 3192 3192 3192 3191 3191 3191 3191 3191 3192 3192 3193 3193 3193 3194 3194 3194 3194 3195 3195 3195 3195 3196 3196 3196 3196 3197 3197 3197 3197 3198 3198 3198 3199 3199 3200 3200 3200 3200 3200 3200 3200
3130 3133 3136 3138 3140 3143 3145 3147 3149 3151 3154 3157 3160 3163 3165 3169 3172 3172 3174 3176 3177 3178 3179 3179 3181 3180 3181 3182 3181 3180 3181 3183 3185 3186 3188 3189 3190 3190 3191 3191 3191 3191 3191 3192 3192 3192 3192 3192 3192 3191 3191 3191 3191 3192 3192 3193 3193 3193 3194 3194 3194 3195 3195 3195 3195 3196 3196 3196 3197 3197 3197 3197 3197 3198 3198 3198 3198 3199 3199 3200 3200 3200 3200 3200 3200
3127 3130 3133 3135 3137 3139 3142 3144 3146 3148 3150 3153 3156 3160 3162 3166 3169 3170 3172 3174 3174 3176 3177 3178 3179 3179 3180 3181 3180 3181 3180 3181 3184 3185 3187 3188 3189 3190 3190 3190 3191 3191 3191 3192 3192 3192 3192 3192 3192 3192 3192 3191 3191 3191 3192 3192 3193 3193 3193 3193 3194 3194 3195 3195 3195 3196 3196 3196 3196 3197 3197 3197 3197 3197 3197 3198 3198 3198 3199 3199 3200 3200 3200 3200 3200
3124 3127 3130 3133 3135 3138 3140 3142 3143 3144 3147 3151 3154 3157 3161 3164 3166 3168 3170 3171 3172 3173 3175 3175 3176 3178 3179 3178 3179 3181 3180 3180 3183 3184 3185 3187 3187 3188 3189 3190 3190 3191 3191 3191 3192 3192 3192 3192 3192 3192 3192 3191 3192 3191 3192 3192 3192 3193 3193 3193 3193 3194 3194 3194 3195 3195 3195 3196 3196 3196 3196 3197 3197 3197 3197 3197 3198 3198 3198 3199 3199 3199 3200 3200 3200
3122 3125 3129 3131 3133 3136 3139 3141 3142 3143 3146 3150 3152 3155 3158 3161 3162 3165 3167 3168 3169 3170 3172 3173 3174 3176 3177 3177 3178 3179 3179 3180 3182 3183 3183 3185 3186 3187 3188 3189 3189 3190 3191 3191 3192 3192 3192 3192 3192 3192 3191 3191 3191 3191 3191 3191 3192 3192 3192 3193 3193 3193 3193 3194 3194 3195 3195 3195 3195 3196 3196 3196 3196 3196 3197 3197 3197 3197 3198 3198 3199 3199 3199 3199 3199
3120 3122 3126 3128 3132 3135 3137 3139 3142 3143 3144 3147 3150 3153 3155 3157 3160 3163 3164 3165 3167 3168 3169 3171 3174 3175 3176 3177 3177 3178 3179 3181 3182 3182 3183 3183 3185 3185 3186 3187 3188 3189 3190 3191 3191 3192 3192 3192 3191 3191 3191 3191 3191 3191 3191 3191 3191 3191 3192 3192 3192 3193 3193 3193 3194 3194 3194 3194 3195 3195 3195 3195 3195 3195 3196 3196 3196 3197 3197 3198 3198 3198 3198 3199 3199
3118 3120 3123 3126 3130 3133 3136 3138 3141 3143 3143 3143 3146 3150 3153 3155 3158 3160 3162 3164 3166 3166 3166 3169 3171 3173 3173 3174 3176 3177 3179 3181 3181 3182 3183 3183 3183 3183 3184 3185 3187 3188 3189 3190 3191 3191 3192 3191 3191 3191 3191 3191 3191 3191 3191 3191 3191 3191 3191 3191 3191 3192 3192 3192 3193 3193 3193 3193 3194 3194 3194 3194 3194 3194 3195 3195 3196 3196 3196 3197 3197 3198 3198 3198 3198
3115 3117 3120 3124 3128 3130 3134 3136 3139 3142 3142 3141 3144 3147 3150 3153 3155 3158 3160 3162 3163 3164 3165 3166 3168 3170 3171 3172 3175 3177 3179 3180 3181 3182 3182 3183 3183 3182 3182 3184 3186 3187 3188 3189 3190 3190 3191 3191 3191 3191 3191 3191 3191 3190 3190 3190 3190 3190 3190 3190 3190 3191 3191 3191 3192 3192 3192 3192 3193 3193 3193 3193 3193 3194 3194 3194 3195 3196 3196 3196 3196 3197 3197 3197 3197
3112 3114 3117 3120 3124 3128 3131 3134 3137 3139 3140 3140 3142 3145 3147 3150 3153 3155 3158 3160 3162 3164 3165 3166 3167 3169 3171 3172 3174 3176 3177 3179 3180 3181 3182 3183 3183 3183 3183 3184 3186 3186 3185 3187 3189 3189 3190 3190 3190 3191 3190 3190 3190 3190 3190 3190 3190 3190 3190 3190 3190 3190 3190 3190 3190 3190 3191 3191 3191 3191 3192 3192 3192 3193 3193 3193 3194 3195 3195 3195 3195 3196 3196 3196 3196
3109 3112 3115 3117 3121 3125 3128 3131 3133 3136 3138 3139 3140 3143 3145 3148 3151 3153 3155 3158 3160 3162 3164 3165 3166 3168 3170 3171 3173 3174 3176 3177 3178 3180 3181 3182 3182 3183 3184 3184 3185 3185 3184 3185 3187 3188 3189 3189 3189 3189 3190 3189 3189 3189 3189 3189 3189 3189 3189 3189 3189 3189 3189 3189 3189 3189 3189 3189 3189 3190 3190 3191 3191 3191 3192 3192 3193 3194 3194 3194 3194 3195 3195 3195 3195
3107 3110 3112 3115 3118 3122 3125 3128 3130 3133 3135 3136 3137 3141 3144 3146 3148 3150 3153 3155 3157 3159 3162 3163 3164 3166 3167 3169 3171 3173 3174 3175 3177 3178 3180 3181 3182 3183 3183 3183 3184 3185 3185 3185 3187 3187 3188 3188 3188 3188 3188 3188 3188 3188 3189 3189 3189 3189 3189 3189 3188 3188 3188 3187 3187 3187 3188 3188 3188 3188 3189 3189 3190 3190 3191 3191 3192 3192 3193 3193 3193 3194 3194 3194 3194
3106 3108 3110 3113 3116 3119 3122 3125 3127 3130 3132 3132 3135 3139 3142 3144 3146 3148 3150 3152 3154 3157 3159 3161 3162 3164 3165 3167 3169 3171 3172 3174 3175 3177 3178 3179 3180 3181 3182 3183 3183 3184 3185 3185 3185 3186 3186 3187 3187 3187 3187 3187 3187 3187 3187 3188 3188 3188 3188 3188 3188 3187 3187 3187 3186 3186 3186 3187 3187 3187 3187 3188 3188 3189 3189 3190 3190 3191 3192 3192 3192 3192 3193 3193 3193
3105 3107 3108 3110 3113 3116 3119 3122 3124 3127 3129 3131 3133 3137 3140 3142 3144 3146 3148 3150 3152 3154 3156 3158 3160 3161 3162 3164 3166 3168 3170 3171 3173 3175 3176 3177 3179 3180 3181 3181 3182 3183 3183 3184 3184 3185 3185 3185 3185 3185 3185 3185 3186 3186 3186 3186 3187 3187 3187 3187 3187 3187 3186 3186 3186 3186 3186 3186 3186 3186 3186 3187 3187 3188 3188 3188 3189 3189 3190 3191 3191 3191 3191 3192 3192
3102 3104 3105 3108 3111 3114 3116 3119 3121 3124 3127 3129 3131 3134 3137 3140 3142 3144 3146 3148 3150 3152 3153 3155 3156 3158 3159 3161 3162 3165 3167 3169 3171 3172 3174 3175 3177 3178 3179 3179 3180 3181 3181 3182 3183 3183 3184 3184 3184 3184 3184 3184 3184 3184 3185 3185 3185 3185 3185 3186 3186 3186 3186 3185 3185 3185 3185 3185 3185 3185 3185 3186 3186 3187 3187 3187 3187 3188 3188 3189 3189 3190 3190 3190 3190
3101 3102 3104 3106 3110 3112 3115 3116 3118 3120 3123 3126 3128 3131 3134 3137 3139 3141 3143 3145 3147 3149 3151 3152 3153 3154 3156 3157 3159 3162 3164 3166 3168 3169 3171 3172 3174 3175 3176 3177 3178 3178 3179 3179 3180 3181 3182 3182 3182 3182 3182 3182 3182 3183 3183 3183 3183 3183 3184 3184 3184 3185 3185 3184 3184 3184 3184 3184 3184 3184 3184 3185 3185 3185 3186 3186 3186 3186 3186 3187 3187 3188 3188 3189 3189
3100 3101 3103 3105 3109 3111 3112 3113 3115 3117 3120 3122 3125 3128 3131 3134 3136 3138 3140 3142 3145 3146 3148 3150 3151 3152 3153 3155 3157 3159 3161 3162 3164 3166 3168 3170 3171 3173 3174 3175 3175 3176 3176 3177 3177 3179 3180 3180 3181 3180 3180 3180 3180 3181 3181 3181 3181 3182 3182 3182 3183 3183 3183 3183 3183 3183 3183 3183 3183 3183 3183 3184 3184 3184 3185 3185 3185 3185 3185 3186 3186 3186 3187 3187 3188
3099 3100 3101 3103 3105 3107 3107 3109 3112 3114 3116 3119 3122 3125 3128 3130 3133 3135 3137 3140 3142 3144 3145 3147 3149 3150 3151 3153 3155 3157 3158 3159 3161 3163 3165 3167 3168 3169 3170 3172 3173 3173 3174 3174 3174 3176 3177 3178 3178 3179 3178 3178 3178 3179 3179 3179 3180 3180 3180 3180 3180 3181 3181 3182 3182 3182 3182 3182 3182 3183 3183 3183 3183 3183 3184 3184 3184 3184 3184 3185 3185 3185 3186 3186 3186
3097 3099 3100 3101 3103 3103 3103 3104 3107 3110 3113 3116 3119 3121 3124 3127 3129 3132 3134 3137 3139 3141 3142 3144 3146 3147 3149 3151 3153 3154 3156 3157 3158 3160 3162 3164 3165 3166 3167 3169 3170 3171 3171 3172 3172 3172 3174 3175 3176 3176 3176 3176 3176 3177 3177 3177 3177 3178 3177 3177 3178 3179 3179 3180 3180 3180 3180 3180 3181 3181 3182 3182 3182 3182 3182 3183 3183 3183 3184 3184 3184 3184 3185 3185 3185
3096 3097 3098 3099 3101 3101 3100 3101 3103 3107 3110 3113 3115 3118 3121 3124 3126 3129 3131 3134 3136 3138 3139 3141 3143 3145 3147 3148 3150 3151 3153 3154 3156 3157 3159 3160 3161 3163 3164 3165 3167 3168 3168 3169 3169 3169 3171 3172 3173 3173 3173 3174 3174 3174 3175 3175 3175 3175 3175 3175 3176 3176 3177 3177 3178 3178 3179 3179 3179 3179 3180 3180 3181 3181 3181 3181 3181 3182 3182 3182 3183 3183 3184 3184 3184
3093 3095 3096 3097 3099 3099 3099 3099 3101 3105 3108 3110 3113 3116 3118 3121 3124 3126 3128 3130 3132 3134 3136 3137 3139 3141 3143 3145 3147 3148 3150 3151 3153 3155 3156 3157 3158 3160 3161 3162 3163 3164 3165 3166 3167 3167 3167 3168 3170 3170 3171 3171 3171 3172 3172 3172 3172 3172 3173 3173 3174 3174 3174 3174 3175 3176 3176 3176 3176 3177 3177 3178 3178 3179 3179 3179 3179 3180 3180 3180 3181 3181 3182 3182 3183
3091 3093 3094 3095 3097 3098 3098 3099 3100 3103 3106 3108 3111 3113 3115 3118 3120 3122 3124 3125 3128 3130 3131 3133 3136 3137 3139 3141 3143 3145 3147 3148 3150 3151 3152 3154 3155 3157 3158 3159 3160 3161 3162 3163 3163 3164 3165 3165 3166 3167 3168 3168 3169 3169 3169 3170 3170 3170 3170 3171 3171 3171 3171 3171 3172 3173 3174 3174 3174 3174 3175 3175 3175 3176 3176 3177 3177 3177 3178 3178 3178 3179 3179 3180 3180
3089 3091 3092 3093 3094 3096 3097 3098 3099 3101 3104 3106 3107 3109 3111 3113 3116 3119 3121 3122 3124 3125 3126 3128 3131 3133 3135 3138 3140 3142 3143 3145 3147 3148 3149 3151 3152 3153 3155 3156 3157 3158 3158 3159 3160 3161 3161 3162 3162 3163 3164 3165 3166 3166 3166 3166 3167 3167 3168 3168 3168 3168 3169 3169 3169 3170 3171 3172 3172 3172 3172 3172 3172 3173 3173 3174 3174 3175 3175 3176 3176 3176 3177 3177 3177
3087 3088 3090 3091 3092 3094 3095 3097 3098 3099 3101 3103 3105 3106 3107 3110 3113 3116 3118 3119 3121 3122 3123 3124 3126 3129 3132 3134 3136 3138 3139 3141 3143 3144 3146 3147 3148 3150 3151 3152 3153 3154 3154 3155 3156 3157 3158 3158 3159 3160 3161 3162 3163 3163 3163 3163 3164 3164 3165 3165 3165 3165 3166 3166 3167 3167 3168 3168 3169 3169 3169 3169 3169 3170 3170 3171 3171 3172 3172 3173 3173 3174 3174 3174 3174
3085 3086 3087 3089 3090 3091 3093 3095 3096 3097 3099 3101 3103 3104 3105 3107 3110 3112 3114 3115 3117 3119 3120 3122 3123 3125 3127 3129 3131 3133 3135 3137 3139 3139 3141 3143 3144 3146 3147 3149 3150 3150 3151 3152 3153 3153 3154 3155 3156 3156 3157 3158 3159 3159 3160 3160 3160 3160 3162 3162 3162 3162 3163 3164 3164 3164 3164 3165 3165 3166 3166 3166 3166 3166 3167 3167 3168 3169 3169 3170 3170 3171 3171 3171 3171
3083 3084 3085 3086 3087 3089 3090 3092 3093 3095 3097 3098 3100 3102 3103 3105 3107 3108 3110 3111 3113 3115 3117 3118 3120 3122 3123 3125 3126 3129 3131 3133 3134 3134 3136 3139 3140 3142 3143 3144 3145 3147 3147 3148 3149 3150 3150 3151 3152 3153 3153 3154 3155 3155 3156 3156 3156 3157 3159 3159 3158 3159 3160 3160 3161 3161 3161 3161 3161 3162 3162 3162 3162 3163 3163 3164 3165 3165 3166 3166 3167 3167 3168 3168 3168
3081 3082 3083 3084 3085 3086 3087 3088 3090 3091 3093 3095 3096 3098 3099 3101 3103 3104 3106 3108 3110 3112 3113 3115 3117 3118 3119 3121 3122 3124 3126 3128 3130 3131 3133 3135 3137 3138 3139 3138 3139 3142 3143 3144 3145 3146 3147 3148 3149 3149 3150 3151 3151 3152 3152 3153 3154 3155 3156 3155 3155 3156 3156 3156 3157 3158 3158 3158 3158 3158 3158 3158 3158 3159 3159 3160 3161 3162 3162 3162 3163 3164 3164 3164 3165
3079 3080 3081 3082 3083 3083 3084 3085 3086 3087 3089 3090 3092 3094 3096 3098 3099 3101 3103 3105 3107 3109 3110 3111 3113 3114 3116 3117 3119 3120 3122 3124 3126 3128 3130 3131 3132 3134 3134 3134 3135 3137 3138 3140 3142 3143 3143 3144 3145 3146 3146 3147 3148 3149 3149 3149 3151 3152 3152 3151 3152 3153 3153 3152 3152 3153 3155 3155 3154 3154 3154 3154 3155 3155 3155 3156 3157 3157 3157 3158 3159 3160 3160 3160 3161
3077 3078 3079 3079 3080 3081 3082 3082 3083 3083 3084 3086 3088 3091 3093 3095 3097 3098 3100 3102 3104 3105 3107 3108 3109 3111 3112 3113 3115 3116 3118 3120 3122 3124 3125 3127 3128 3130 3131 3132 3133 3133 3134 3136 3137 3139 3140 3141 3142 3142 3143 3144 3145 3146 3145 3145 3146 3147 3148 3148 3148 3149 3149 3148 3148 3149 3150 3150 3150 3149 3149 3149 3150 3151 3151 3152 3152 3153 3152 3153 3155 3155 3155 3155 3156
3075 3076 3076 3077 3078 3079 3079 3080 3080 3081 3082 3084 3086 3088 3090 3091 3093 3095 3096 3098 3099 3101 3103 3105 3106 3108 3109 3110 3112 3113 3115 3117 3118 3120 3122 3123 3124 3126 3127 3128 3129 3130 3131 3132 3134 3134 3135 3137 3138 3138 3139 3140 3141 3142 3142 3141 3142 3143 3144 3144 3144 3145 3145 3144 3144 3145 3145 3145 3145 3145 3145 3146 3146 3146 3147 3148 3148 3149 3149 3149 3150 3150 3150 3151 3151
3073 3074 3074 3075 3076 3076 3077 3077 3078 3080 3081 3082 3083 3084 3085 3087 3089 3091 3092 3093 3095 3097 3099 3100 3102 3104 3105 3107 3108 3110 3111 3113 3114 3115 3117 3119 3120 3121 3122 3124 3125 3126 3127 3128 3129 3130 3131 3132 3133 3134 3136 3137 3137 3138 3139 3138 3138 3139 3139 3139 3140 3140 3140 3140 3140 3141 3141 3140 3141 3141 3141 3142 3142 3141 3142 3144 3144 3144 3145 3145 3146 3146 3146 3146 3146
3072 3072 3073 3073 3074 3074 3075 3076 3076 3077 3079 3079 3080 3081 3082 3084 3086 3087 3088 3089 3091 3092 3094 3096 3097 3099 3101 3102 3103 3105 3107 3109 3110 3111 3112 3114 3115 3116 3117 3118 3119 3121 3122 3123 3124 3125 3126 3127 3128 3129 3131 3133 3132 3133 3134 3134 3134 3134 3135 3135 3134 3134 3135 3135 3136 3137 3136 3135 3136 3136 3136 3137 3138 3136 3137 3139 3138 3138 3140 3140 3141 3141 3141 3141 3141
3072 3072 3072 3072 3072 3073 3073 3074 3074 3075 3076 3077 3078 3079 3080 3081 3082 3084 3085 3086 3087 3088 3090 3091 3093 3094 3096 3097 3099 3100 3102 3104 3105 3106 3107 3108 3109 3110 3110 3111 3113 3115 3116 3117 3119 3120 3121 3122 3122 3124 3126 3128 3128 3129 3129 3129 3129 3129 3130 3129 3128 3128 3129 3130 3131 3132 3131 3132 3132 3132 3131 3133 3133 3131 3132 3134 3132 3131 3133 3135 3136 3137 3136 3136 3136
3071 3071 3071 3071 3071 3071 3072 3072 3073 3073 3074 3075 3076 3077 3078 3079 3079 3080 3081 3082 3083 3084 3086 3087 3088 3089 3091 3092 3094 3096 3097 3099 3100 3101 3102 3103 3103 3104 3104 3105 3107 3108 3110 3111 3113 3114 3115 3116 3117 3118 3120 3122 3123 3123 3124 3124 3123 3124 3124 3122 3122 3124 3125 3125 3126 3126 3127 3128 3128 3127 3126 3128 3129 3126 3127 3129 3127 3125 3127 3128 3130 3132 3131 3131 3131
3071 3071 3071 3070 3070 3070 3071 3071 3071 3072 3072 3073 3074 3074 3075 3076 3077 3077 3078 3079 3080 3081 3082 3083 3084 3085 3086 3088 3089 3090 3092 3093 3095 3095 3096 3097 3098 3098 3099 3100 3101 3102 3104 3106 3107 3108 3109 3110 3111 3112 3113 3115 3116 3117 3118 3118 3118 3119 3118 3115 3117 3121 3121 3119 3120 3121 3123 3123 3123 3122 3121 3123 3124 3123 3121 3122 3122 3121 3121 3122 3123 3125 3125 3125 3125
3070 3070 3070 3070 3070 3070 3070 3070 3070 3070 3071 3071 3072 3072 3072 3073 3074 3075 3075 3076 3077 3078 3079 3080 3081 3082 3082 3083 3084 3085 3086 3087 3088 3089 3090 3091 3091 3092 3093 3094 3095 3096 3098 3100 3102 3102 3103 3103 3104 3106 3107 3108 3109 3109 3111 3112 3112 3113 3111 3110 3114 3116 3114 3113 3114 3116 3117 3117 3117 3118 3116 3116 3119 3118 3117 3117 3116 3115 3116 3117 3116 3117 3118 3119 3118
3070 3070 3069 3069 3069 3069 3069 3069 3069 3069 3069 3070 3070 3070 3070 3071 3071 3072 3073 3074 3075 3075 3076 3077 3078 3078 3079 3079 3080 3080 3081 3081 3082 3083 3083 3084 3084 3085 3086 3087 3088 3089 3091 3093 3094 3095 3095 3096 3097 3098 3100 3101 3102 3102 3103 3105 3106 3106 3105 3105 3108 3109 3107 3107 3109 3109 3109 3110 3112 3112 3110 3111 3113 3113 3112 3111 3110 3109 3110 3111 3111 3110 3111 3111 3112
Wind_Speed
22 21 23 25 26 25 24 23 22 21 20 19 18 17 16 16 15 15 14 12 12 11 10 10 10 10 10 11 11 11 10 11 11 10 10 12 12 12 12 11 11 10 9 9 10 11 12 11 11 11 11 12 12 12 12 11 12 12 11 11 10 10 10 11 12 13 13 13 12 12 11 9 9 8 8 7 7 9 10 10 9 8 9 7 6
24 23 25 26 26 26 26 25 23 22 21 20 19 18 17 17 16 16 14 12 11 10 10 10 9 10 10 11 11 11 10 11 11 10 10 11 11 11 11 11 10 10 9 8 9 10 11 11 11 10 10 11 12 13 13 12 12 11 11 10 10 10 10 11 11 12 12 12 12 11 10 9 8 8 8 8 9 10 11 10 9 8 8 7 6
25 26 27 26 27 27 27 26 25 23 23 22 21 19 18 17 16 16 14 11 9 9 10 10 9 9 10 10 11 11 10 10 11 10 10 10 9 10 11 11 11 10 10 9 9 10 10 11 10 10 10 10 11 13 14 13 12 11 10 10 9 10 10 10 11 11 12 12 11 10 9 9 8 9 8 9 10 11 11 10 9 9 8 7 6
27 28 28 28 29 28 27 27 26 25 24 23 23 21 19 18 16 15 13 10 8 8 8 9 9 9 9 9 11 11 10 11 11 10 10 10 9 9 10 10 10 10 11 11 10 10 10 10 10 9 9 9 10 12 14 13 12 11 10 9 9 9 9 9 10 11 11 11 10 10 9 8 8 8 9 9 10 11 12 11 10 9 8 7 5
30 30 28 29 29 28 28 28 27 26 25 24 23 22 20 18 16 15 13 10 8 7 7 8 8 8 8 9 10 10 10 10 11 10 10 10 8 9 9 9 9 9 10 11 11 10 10 10 9 9 8 9 9 10 12 13 12 11 10 9 9 9 8 9 9 10 10 10 10 9 8 7 7 8 9 9 10 11 11 10 9 7 7 6 4
32 31 30 30 30 30 29 28 27 26 25 24 23 22 21 19 16 15 13 11 9 8 7 7 8 8 8 8 9 9 10 10 10 10 10 9 8 8 8 8 8 8 9 10 10 10 10 10 9 8 7 8 8 9 11 12 12 11 10 9 9 8 8 8 8 9 9 9 9 9 8 7 7 8 9 9 10 9 9 9 8 6 6 5 3
34 33 31 31 32 31 30 29 28 26 25 25 24 22 21 20 17 15 14 12 11 9 8 7 7 8 8 7 8 9 9 9 10 10 10 9 8 7 7 7 7 7 8 8 9 9 10 10 9 8 7 7 8 9 10 11 11 11 10 10 9 8 7 7 7 7 8 8 8 8 8 7 7 7 7 8 8 8 8 7 6 5 5 5 4
36 35 33 33 33 32 32 31 28 27 26 25 24 22 22 21 19 16 14 13 12 10 8 7 7 8 8 7 8 8 9 9 9 10 9 9 8 7 7 7 6 6 7 7 8 8 9 10 9 8 7 6 7 8 10 11 10 10 10 9 9 8 7 7 7 7 7 7 7 7 7 7 6 6 6 6 6 6 6 6 6 5 5 5 4
37 36 34 33 33 33 33 31 29 29 27 25 24 23 22 22 20 18 15 14 13 11 9 8 6 7 8 7 7 8 8 8 8 9 9 8 8 7 6 6 6 5 5 6 6 7 8 8 8 7 7 6 6 7 9 11 11 10 9 8 8 8 7 7 7 6 6 6 6 6 6 6 5 5 5 5 5 4 5 5 5 5 5 5 4
39 37 35 34 34 35 35 33 30 30 28 26 26 24 23 23 21 18 16 15 14 11 10 8 7 7 7 8 7 7 7 7 7 7 7 7 7 7 6 6 6 5 5 4 4 5 6 7 7 7 7 7 6 6 8 9 11 10 9 8 7 7 7 6 6 6 6 5 5 5 5 5 5 5 5 4 3 3 4 4 5 5 5 5 4
40 37 36 35 35 37 36 34 32 31 29 28 27 25 25 23 21 20 18 17 14 11 11 10 8 7 8 8 8 8 7 6 6 6 6 6 7 7 6 6 6 5 5 4 3 4 5 5 6 6 7 7 6 6 7 8 9 9 9 8 6 6 6 6 6 6 6 5 5 5 4 4 5 5 4 3 2 2 3 3 4 5 5 5 4
41 38 37 36 35 35 34 33 34 33 31 30 28 27 26 24 22 21 19 19 16 13 13 12 10 9 9 9 8 8 7 6 5 4 4 4 6 6 6 6 6 5 5 4 4 3 4 4 5 6 7 7 6 7 7 7 7 8 8 8 7 6 6 6 6 6 6 6 5 5 5 4 4 4 4 3 2 2 2 2 3 4 5 5 4
42 40 39 37 36 34 33 34 35 33 31 31 29 28 27 25 23 21 21 21 18 14 14 13 12 11 11 10 9 8 7 6 5 3 3 3 4 5 5 5 5 5 4 4 4 3 3 3 4 5 6 7 7 7 7 7 7 7 7 7 7 6 5 6 6 6 6 6 6 6 5 5 4 3 3 3 2 2 2 2 3 4 4 5 5
43 42 41 38 37 35 34 35 34 34 33 32 31 30 28 27 25 24 23 22 19 17 16 15 14 13 13 13 11 9 7 7 5 4 2 2 3 3 4 5 5 5 4 3 3 3 3 2 2 2 4 6 7 8 7 7 7 7 7 7 6 6 6 5 6 6 6 6 6 6 5 5 4 4 3 3 3 3 2 2 3 3 4 5 5
45 43 43 39 38 37 36 36 35 36 35 33 33 31 30 29 27 26 25 23 21 20 19 18 15 13 14 13 11 10 9 9 7 5 4 3 3 3 3 5 6 6 4 3 2 2 2 2 1 1 3 5 6 7 8 7 7 7 7 6 6 6 6 6 5 5 5 5 6 5 5 5 4 4 4 4 4 3 4 3 3 3 4 5 5
47 44 44 41 39 39 38 38 38 38 36 34 33 32 31 30 27 27 27 25 25 23 22 20 17 16 16 15 13 11 10 10 9 6 4 4 3 2 3 4 5 5 5 4 2 1 1 1 0 1 2 4 5 6 7 8 8 7 7 6 6 6 6 6 5 5 5 5 5 5 5 5 4 3 4 5 5 5 5 4 4 4 4 5 5
50 47 46 44 42 41 40 40 39 39 38 36 35 34 33 30 28 29 28 27 27 25 23 22 19 18 18 17 13 12 10 8 7 6 5 4 4 3 3 3 4 4 4 4 3 1 1 1 1 1 1 3 5 5 6 7 8 8 7 7 6 6 6 6 6 5 5 4 4 4 4 5 4 4 4 5 6 6 6 5 5 4 4 4 4
52 51 49 48 45 43 42 42 41 40 38 37 36 35 34 31 30 30 29 28 28 27 26 25 21 20 20 16 12 12 12 7 5 7 7 5 4 4 4 3 2 2 3 3 3 2 1 0 1 1 1 2 3 5 6 6 7 8 8 7 7 6 6 6 5 5 4 4 4 4 5 5 5 5 5 6 6 7 7 6 5 5 4 4 3
53 55 53 50 46 43 42 42 41 39 37 36 35 35 33 32 31 31 29 29 29 28 27 26 23 22 22 17 14 15 11 8 7 8 7 8 8 6 4 4 2 1 1 2 3 3 3 2 1 1 2 2 2 4 6 6 7 7 8 8 8 7 7 7 6 5 5 4 5 6 6 7 7 7 6 6 6 7 7 7 6 5 4 3 2
51 55 53 50 46 42 40 38 37 36 36 36 35 34 33 33 33 31 30 30 30 29 28 27 25 23 21 18 17 16 11 9 10 10 9 9 9 9 7 5 4 3 2 2 2 3 4 4 4 2 2 3 3 3 4 6 8 8 8 8 8 8 8 8 7 7 6 6 6 7 7 8 8 8 8 7 7 7 8 8 7 6 4 3 1
47 52 53 49 45 42 39 37 36 35 36 37 36 34 35 34 33 31 31 31 29 29 29 27 26 25 23 22 20 18 15 15 14 12 11 10 8 8 8 6 5 5 5 5 3 3 4 5 5 4 3 2 4 4 4 5 7 9 10 10 9 9 9 9 9 8 8 8 8 8 8 9 9 9 9 8 7 8 8 8 8 6 5 3 2
46 50 52 51 45 41 39 38 39 36 34 35 35 35 35 34 32 31 31 30 30 30 29 27 26 25 23 22 20 18 18 17 15 14 13 11 10 9 7 7 7 7 7 7 6 5 4 5 6 7 5 4 4 5 5 5 6 8 10 11 12 12 11 11 11 11 10 9 9 9 9 9 9 9 9 8 8 8 9 9 8 7 6 4 3
45 48 51 52 46 41 39 38 40 39 34 33 34 35 35 34 33 32 31 30 31 30 29 28 26 24 22 22 21 20 19 18 17 16 15 14 13 11 10 9 9 11 10 9 9 8 6 6 6 7 8 7 6 6 5 6 6 6 8 10 12 13 14 14 13 13 12 11 10 10 10 10 9 10 10 9 9 9 9 9 8 7 6 5 4
38 45 52 53 47 43 41 39 41 42 36 34 35 35 35 34 33 32 32 31 32 30 29 29 27 25 25 24 23 22 21 20 19 19 17 16 15 13 12 12 12 14 14 10 9 11 10 9 8 7 9 10 9 8 7 7 7 7 7 8 9 11 13 14 15 14 14 13 11 10 10 10 10 10 10 9 9 10 10 10 9 8 7 6 5
33 42 50 52 48 45 43 42 43 45 39 34 35 35 33 32 32 32 33 33 33 32 31 30 28 27 27 26 25 23 22 22 21 20 19 18 17 15 14 15 14 14 15 12 12 14 13 12 11 10 10 11 12 11 10 9 8 8 8 8 8 9 10 12 13 14 14 13 12 11 11 11 11 11 10 9 10 10 11 11 10 9 8 7 6
35 41 47 50 48 45 44 45 45 43 38 34 34 35 34 33 33 33 33 34 35 34 32 31 30 29 28 28 27 25 24 24 23 21 20 19 19 17 16 17 15 15 16 15 15 16 15 14 14 12 11 12 13 13 13 11 10 9 8 8 9 9 10 10 12 13 13 14 13 12 12 12 12 12 11 10 10 11 11 11 11 10 9 8 7
36 40 47 51 49 47 47 46 42 37 35 34 34 34 34 34 34 34 34 35 35 34 34 33 32 32 31 30 28 27 25 24 23 22 21 21 20 19 18 18 17 17 17 17 16 17 16 15 15 14 13 13 14 14 14 13 12 11 10 9 10 10 10 10 11 12 12 13 13 13 13 13 13 13 12 12 11 12 12 11 11 10 9 9 8
33 36 46 53 51 50 49 44 39 36 34 35 38 37 34 34 35 35 35 35 35 34 34 34 34 34 33 32 30 29 28 26 24 23 22 22 21 21 20 19 18 18 17 17 17 17 16 15 14 14 14 15 15 15 15 15 14 13 12 10 11 11 11 11 10 11 12 12 13 13 13 13 13 13 13 13 13 12 12 12 11 10 10 10 9
27 30 39 51 52 50 46 39 38 39 36 35 41 42 36 34 36 35 36 37 36 36 35 35 35 35 36 36 33 31 30 29 27 25 25 24 23 23 22 21 20 20 19 18 17 16 16 16 15 15 15 15 16 16 16 16 15 15 14 12 11 12 12 12 11 11 12 12 12 13 13 13 13 14 14 13 14 13 13 13 12 12 11 11 10
23 23 30 44 50 48 44 40 39 41 38 35 41 45 40 36 36 36 37 38 37 38 37 36 36 36 37 36 33 31 32 31 29 28 27 26 25 25 24 23 21 21 21 20 19 17 16 16 15 16 16 15 16 16 17 17 17 16 15 14 13 13 13 13 12 12 12 12 13 13 13 14 14 14 14 14 14 14 14 14 13 13 12 12 12
20 21 25 32 39 42 44 45 44 43 40 36 39 46 42 37 37 37 37 38 37 38 38 37 37 37 36 34 32 33 34 33 32 30 28 28 28 27 26 25 24 23 22 21 21 19 17 17 15 16 17 17 17 17 17 18 18 17 17 16 15 14 14 14 14 13 13 13 13 14 14 14 14 14 14 14 15 14 14 14 14 14 13 13 13
18 21 24 25 29 34 39 44 47 46 42 39 42 48 46 38 37 37 36 37 37 37 38 38 38 38 37 36 35 35 36 36 35 33 30 29 28 27 27 27 25 24 22 22 22 20 19 19 17 16 17 18 18 18 18 19 20 19 19 18 17 16 15 15 15 15 14 14 14 15 15 14 14 15 15 15 15 15 15 14 14 14 14 14 13
20 20 22 22 23 28 33 40 49 49 43 40 44 49 48 41 38 37 36 37 37 36 36 36 37 38 38 37 37 36 37 36 35 34 31 30 29 28 27 27 26 24 22 22 23 22 20 20 19 17 18 19 19 19 19 20 21 21 21 21 19 18 17 16 16 16 16 16 15 16 16 16 15 15 15 15 15 15 15 15 15 14 14 14 14
23 22 22 21 20 22 25 33 48 53 47 44 46 50 51 47 42 40 39 39 38 36 35 34 34 36 37 37 37 37 36 35 33 32 31 30 29 28 27 26 25 24 23 22 22 23 22 21 20 19 19 20 20 20 21 21 23 23 23 23 21 19 19 18 18 17 17 17 17 17 17 17 17 16 17 17 16 16 16 16 16 15 15 15 15
25 24 24 23 21 20 21 25 39 52 52 49 49 50 50 48 45 44 43 43 41 39 37 35 34 35 35 36 36 36 35 34 32 31 32 31 30 28 27 26 25 25 24 24 23 23 23 22 21 20 20 21 21 22 22 22 24 25 24 24 24 22 21 20 20 20 19 18 18 18 18 18 18 18 18 18 18 18 18 18 18 17 17 17 17
26 26 25 24 23 22 21 21 28 41 49 51 50 49 49 49 48 46 45 45 44 43 43 41 39 38 37 36 35 35 34 33 32 33 33 31 30 30 28 27 27 27 27 27 26 25 24 23 23 23 22 22 22 22 22 23 25 25 25 25 26 25 24 22 22 22 21 20 20 19 19 20 20 20 20 20 21 21 20 20 20 20 19 19 19
24 25 26 26 25 24 23 23 25 31 39 44 45 46 48 50 49 44 41 41 42 44 45 44 44 44 41 39 37 36 36 35 34 34 33 32 31 32 31 30 30 29 29 29 29 28 27 26 26 26 25 24 24 23 24 24 24 25 25 26 27 28 27 25 24 23 23 23 22 21 21 21 22 22 22 22 22 23 23 23 22 22 22 21 22
23 24 25 27 27 26 26 25 26 27 31 34 35 36 39 42 43 40 35 35 37 38 38 38 41 45 46 45 42 39 37 36 35 36 34 32 33 33 33 32 31 31 30 29 30 30 30 29 28 28 28 27 27 26 26 25 25 25 25 25 27 29 29 27 26 24 24 25 25 25 24 23 23 23 24 24 25 25 25 25 25 24 24 24 24
21 22 23 25 27 28 28 28 28 28 28 29 29 30 32 34 36 35 32 31 31 31 32 33 34 37 41 46 48 45 41 37 37 38 35 32 34 34 33 33 32 31 31 30 31 31 31 30 30 31 30 29 29 28 27 27 27 26 26 26 27 27 27 27 27 25 25 26 26 27 27 27 26 26 25 25 26 26 27 27 27 27 27 28 27
18 19 21 22 24 26 28 29 30 30 29 29 29 30 31 32 33 32 30 29 28 28 30 31 31 32 34 38 43 46 43 39 39 39 35 34 35 34 35 35 33 31 31 31 32 32 31 31 31 31 31 30 29 28 28 28 27 26 26 27 28 27 26 27 27 26 27 27 27 28 29 30 30 29 28 27 27 27 28 29 29 30 30 30 29
16 17 19 20 21 23 25 27 29 31 31 31 31 31 32 32 32 32 31 30 29 29 30 30 30 31 31 32 35 40 41 38 36 36 36 36 36 36 38 37 33 31 32 32 33 33 32 31 31 30 29 28 28 27 27 28 27 26 27 28 28 28 28 29 29 28 28 29 29 30 30 31 32 32 32 30 29 29 30 30 30 31 31 31 30
14 15 17 18 19 20 22 24 26 28 31 33 34 33 32 33 33 33 34 34 33 32 33 32 32 31 32 32 32 35 38 38 35 33 34 35 36 36 37 36 33 33 34 33 33 33 32 31 30 28 27 28 27 26 27 26 26 26 27 29 29 28 28 29 30 30 30 30 31 33 33 33 33 33 34 33 32 33 33 32 31 31 32 32 31
13 14 15 17 18 19 20 21 23 25 28 31 34 34 34 35 35 35 35 36 36 36 36 35 34 34 34 34 33 32 34 36 35 32 32 33 34 34 35 35 34 34 35 34 33 33 33 32 30 29 30 30 29 29 29 26 24 26 27 28 29 28 28 28 29 29 30 30 30 33 35 35 35 35 35 35 35 35 35 35 33 34 34 34 34
10 13 15 16 17 18 20 21 22 23 24 25 27 30 34 36 37 37 37 37 37 37 38 37 37 36 36 36 36 34 33 33 32 32 31 31 32 33 34 35 36 36 37 37 36 36 36 35 35 34 34 33 32 32 31 27 25 27 28 28 30 29 30 31 30 29 29 30 30 31 33 34 36 37 37 37 37 37 37 36 36 36 36 36 36
5 8 12 14 16 18 19 20 21 21 21 22 23 25 29 33 36 38 39 39 39 39 39 39 39 39 39 39 39 39 37 35 34 34 33 33 33 34 36 37 37 38 39 40 40 40 40 41 41 40 38 37 36 34 31 28 29 31 30 30 30 31 32 32 31 30 31 32 32 32 33 33 34 37 37 36 38 39 39 38 38 38 38 38 38
1 2 6 10 13 15 16 18 19 20 21 21 22 23 24 26 30 33 37 39 40 41 40 40 40 40 41 42 42 42 42 41 40 39 38 37 37 38 39 40 40 41 41 42 42 43 43 45 46 44 42 39 38 37 34 33 33 33 32 31 32 34 34 34 32 32 33 34 32 33 34 33 33 35 35 34 36 38 38 40 41 41 41 41 41
4 3 0 4 7 10 12 14 16 18 19 20 21 22 23 24 25 27 30 34 37 39 40 40 40 40 41 42 43 44 44 45 45 45 44 44 44 44 44 44 44 44 44 44 44 45 45 46 47 47 45 42 40 39 38 38 37 36 35 35 35 36 36 35 34 33 33 33 32 33 35 34 33 35 33 33 35 35 35 38 40 42 43 44 44
4 3 2 1 2 4 7 9 12 13 15 17 18 20 22 23 24 26 27 28 31 33 35 37 38 39 40 41 42 43 44 46 47 48 49 49 49 49 49 49 48 47 47 46 46 46 47 48 48 48 48 46 44 43 42 42 42 41 39 39 39 37 36 37 37 36 34 33 32 34 36 34 35 37 35 33 35 36 34 34 35 37 40 43 45
3 3 3 2 1 1 2 5 7 9 11 12 14 15 17 19 22 24 25 26 27 29 30 32 33 34 35 36 38 39 41 43 45 47 49 50 51 52 52 52 52 52 51 50 50 50 50 50 50 50 50 50 49 48 46 46 46 45 45 45 42 39 39 41 41 39 38 37 36 36 37 36 35 38 37 35 36 36 35 35 35 35 37 39 42
3 3 3 2 2 1 1 1 3 4 6 9 10 12 13 15 17 19 20 22 24 25 26 28 29 30 31 32 34 35 37 39 41 43 46 48 50 52 53 54 55 55 54 54 53 54 54 54 53 53 53 53 53 53 52 51 50 49 49 49 46 44 45 46 46 44 43 43 40 39 40 40 37 38 39 38 38 38 37 36 37 37 35 37 39
4 4 3 3 3 2 2 1 1 2 3 5 7 8 10 12 13 15 16 17 18 20 21 22 24 25 26 28 30 32 34 36 37 39 42 44 46 48 50 52 54 55 55 55 56 56 57 57 57 57 56 56 56 57 57 55 54 54 54 53 50 49 50 50 49 49 48 48 45 43 44 44 41 40 41 39 39 40 39 37 38 38 37 37 39
Wind_Direction
204 203 203 199 189 187 190 192 192 188 184 181 179 179 172 163 158 150 145 141 137 136 129 120 115 109 102 100 100 98 96 95 94 95 103 111 119 126 130 133 134 132 130 128 125 120 115 112 111 114 116 117 117 113 111 112 116 119 122 125 129 131 130 130 129 128 129 129 126 122 117 113 109 102 97 96 107 122 133 153 165 157 151 153 139
198 200 200 200 190 186 191 192 192 188 183 182 179 179 175 168 163 154 146 143 143 141 133 126 120 113 106 103 102 101 98 97 96 95 101 105 115 124 126 129 130 131 130 128 125 120 116 114 113 115 118 121 121 119 117 117 118 118 119 123 128 130 131 131 131 130 129 129 126 122 116 110 105 101 101 98 101 117 132 144 150 145 148 148 137
192 199 200 201 194 190 192 192 193 189 183 182 181 179 176 172 167 156 145 143 149 150 141 132 126 118 110 106 103 102 101 99 96 94 100 104 110 118 122 127 130 131 129 124 120 116 115 114 115 117 118 123 124 124 123 123 123 119 118 121 126 130 132 133 132 132 132 129 125 121 116 109 102 100 100 102 107 118 132 139 137 137 141 139 132
193 199 201 203 197 194 193 192 193 190 187 185 183 179 177 176 168 154 145 150 158 156 150 140 132 125 118 110 104 104 104 103 101 98 100 106 113 117 119 126 131 131 128 123 119 115 114 113 116 117 118 122 126 128 127 127 127 122 120 121 125 129 131 135 134 134 133 130 125 121 119 112 103 102 100 103 110 119 129 134 134 134 132 128 125
197 199 201 204 200 196 195 195 195 192 190 189 186 181 181 180 167 152 149 161 168 161 161 153 142 135 127 119 110 106 107 106 106 102 100 104 113 117 117 123 128 130 127 124 121 117 115 114 114 117 120 121 124 129 130 132 131 125 123 123 124 127 131 136 135 136 136 132 128 124 123 117 108 106 104 105 111 119 125 130 133 132 123 118 115
199 200 201 203 201 198 198 199 197 195 193 191 190 185 184 181 168 158 158 168 176 170 168 168 157 145 136 128 119 110 107 107 105 101 98 98 103 110 113 118 122 126 127 126 124 123 120 117 117 119 123 124 126 130 134 135 133 128 125 124 125 127 130 133 134 135 135 134 132 130 128 121 112 105 105 106 111 118 122 127 132 127 115 110 104
199 200 200 202 202 199 199 200 198 198 196 194 194 188 185 183 174 169 168 176 184 177 173 179 171 155 145 136 126 116 109 107 106 102 98 93 92 96 102 108 114 120 126 130 131 129 123 119 119 125 130 130 131 135 138 138 136 132 127 126 127 128 131 132 134 135 133 134 133 131 127 120 111 103 103 107 111 118 120 125 127 121 110 104 97
200 201 200 201 204 201 200 200 198 201 200 197 197 192 188 184 179 179 180 188 191 181 180 187 182 166 155 145 134 124 115 109 107 105 101 99 95 88 89 94 99 106 116 126 133 134 128 123 124 131 138 139 138 141 145 143 140 136 130 129 130 131 134 134 136 137 135 135 133 130 126 123 116 105 106 108 111 114 115 118 118 112 103 93 79
200 202 202 203 204 203 202 200 197 202 204 200 200 197 192 187 183 185 189 200 199 181 182 194 188 181 170 159 146 132 126 120 113 107 104 105 105 97 90 87 85 89 102 113 126 136 135 132 132 136 145 151 148 148 152 151 147 143 136 133 133 135 138 138 139 139 139 139 137 134 129 130 126 113 109 108 109 109 107 108 104 98 90 77 64
200 201 202 203 203 203 204 201 198 202 205 203 202 200 198 193 189 192 192 205 210 184 181 198 194 192 185 173 160 144 139 134 124 114 109 111 111 107 103 94 85 80 86 90 106 130 137 143 147 146 149 157 162 159 160 159 156 152 147 142 139 141 145 145 144 144 145 145 143 143 140 140 135 121 111 108 111 108 102 101 95 90 83 72 62
199 198 200 202 203 205 203 200 199 201 205 206 204 202 203 199 197 201 197 204 215 195 187 199 196 195 193 184 172 157 151 147 135 121 115 117 115 112 110 104 95 84 79 73 72 104 125 148 162 164 161 159 168 173 172 171 168 164 157 153 152 151 153 155 153 152 153 153 153 155 155 156 147 130 119 115 115 108 103 101 94 88 85 78 65
198 197 198 201 204 208 204 200 202 201 203 208 207 204 205 205 205 207 207 206 210 204 195 197 199 201 197 190 181 169 161 158 148 131 124 121 112 109 108 106 104 98 87 74 57 64 102 138 163 178 180 171 173 180 183 186 185 182 173 165 166 164 163 165 162 160 160 160 164 170 169 167 158 140 128 122 120 112 109 107 100 91 89 86 75
196 196 196 200 203 206 205 204 205 202 203 208 210 208 205 208 210 211 217 214 211 210 203 199 203 203 200 194 186 180 173 167 162 147 135 119 109 104 102 106 110 109 104 92 71 52 69 106 145 176 191 189 185 184 187 191 194 198 194 182 177 174 175 176 168 166 168 165 169 179 178 173 170 160 141 131 128 118 119 127 110 96 90 89 83
193 197 195 200 203 202 203 206 206 204 205 207 211 212 208 210 213 214 222 222 215 213 212 213 208 203 207 201 187 184 187 179 174 166 153 134 122 112 102 106 109 110 113 108 96 76 63 70 104 169 200 202 198 193 191 192 196 201 201 196 185 177 182 184 172 168 172 171 173 184 186 181 178 176 161 148 141 131 142 151 121 104 97 92 86
192 199 197 198 203 202 202 204 205 207 207 207 211 214 212 212 215 218 222 224 221 214 216 223 218 210 214 211 192 188 197 189 179 181 171 157 149 136 116 105 102 102 106 110 112 114 95 66 70 167 206 213 211 206 202 199 200 202 201 200 192 183 185 183 172 167 170 173 174 184 195 193 187 183 173 161 152 147 151 149 129 113 105 97 89
193 198 199 197 201 202 203 203 204 208 209 208 211 216 217 216 218 222 222 223 224 219 217 221 221 220 217 211 199 194 204 193 177 184 188 175 166 151 139 122 106 94 93 95 101 122 130 114 115 170 195 212 218 218 216 211 208 207 203 201 199 191 188 184 175 167 168 175 178 186 199 206 207 199 185 174 164 158 155 150 143 131 116 105 93
196 197 199 198 200 202 203 204 205 207 208 209 211 216 220 220 221 225 225 224 225 223 220 217 219 227 226 214 199 192 204 194 174 186 192 191 183 162 162 152 126 103 88 79 75 83 136 196 226 209 188 208 219 225 227 223 216 214 211 208 207 204 199 195 187 179 177 185 198 206 214 219 224 222 202 184 172 164 160 158 156 145 130 115 99
198 197 199 198 199 202 203 205 206 205 206 208 211 215 219 221 222 224 225 225 225 224 223 220 217 225 230 222 203 205 206 183 184 201 188 192 200 180 173 179 161 121 94 74 62 46 33 261 247 260 260 219 219 227 233 236 227 221 220 216 213 214 213 210 208 207 204 212 234 243 243 239 238 238 220 195 180 169 166 167 164 154 143 126 107
200 198 199 198 199 204 206 206 205 202 203 207 210 214 218 219 220 221 223 225 224 222 224 224 219 220 226 220 209 221 217 178 194 218 202 195 195 188 184 194 211 207 69 49 44 26 16 359 336 284 271 262 233 228 227 235 238 231 226 223 219 220 222 221 223 231 237 243 255 261 261 255 249 246 232 208 190 177 171 172 171 164 156 143 122
205 201 200 199 200 205 210 211 208 201 200 206 210 212 215 217 217 217 219 223 223 223 223 223 222 222 223 220 215 223 222 199 204 219 224 218 202 191 191 207 228 244 271 294 343 1 8 357 340 323 288 271 261 247 226 226 233 236 234 230 226 224 226 229 232 242 256 262 262 262 263 260 254 249 235 215 198 186 179 178 178 174 170 169 183
207 203 202 202 201 204 210 214 215 207 201 205 208 210 214 216 217 217 218 221 222 224 224 222 222 223 219 218 218 216 215 213 212 215 227 241 239 214 195 203 233 250 261 270 288 319 342 346 339 335 324 288 268 262 248 230 227 232 235 234 234 232 232 233 238 246 257 267 267 260 257 255 252 247 235 219 204 194 187 184 184 184 186 192 216
209 206 203 201 200 206 212 216 218 214 206 204 207 211 214 216 217 217 219 221 222 224 225 223 224 224 221 221 222 218 216 216 215 218 223 234 252 252 226 214 227 245 253 262 274 287 309 321 328 328 324 311 288 273 266 253 234 229 233 234 236 238 239 238 241 248 253 260 264 260 254 249 245 242 233 220 209 202 195 192 193 194 201 208 220
219 216 208 199 201 211 216 217 219 218 212 205 208 213 214 216 217 218 219 222 224 225 226 228 227 227 226 226 226 224 222 221 219 222 225 226 236 249 249 238 238 246 244 246 264 272 279 292 305 314 314 313 305 290 276 266 253 240 235 235 235 237 240 241 242 246 251 253 255 255 251 243 238 235 230 219 211 207 201 199 201 206 212 220 225
225 221 209 201 204 212 216 219 220 221 215 204 208 216 216 217 218 220 220 222 226 227 226 228 228 227 227 226 227 227 226 226 225 223 224 227 231 236 242 241 239 249 249 240 254 266 268 277 283 290 299 304 302 295 284 274 265 256 246 240 238 237 238 241 241 242 245 247 247 246 245 241 234 231 228 219 209 209 209 206 209 215 223 229 227
223 217 208 202 203 208 216 221 219 221 217 204 206 216 219 220 221 222 223 224 226 228 227 228 228 227 229 229 229 228 227 228 228 226 224 226 231 233 240 243 238 247 257 254 255 262 263 268 274 276 283 289 293 294 289 283 276 269 260 249 244 241 239 240 241 240 239 239 239 237 236 234 231 228 227 221 211 210 212 213 216 222 231 234 226
219 213 206 202 204 210 215 219 218 219 215 204 205 215 218 221 224 224 225 226 227 228 227 227 228 228 229 230 230 230 230 231 232 232 231 229 231 232 236 245 244 245 256 261 260 263 263 264 268 272 273 274 281 288 291 290 286 282 275 264 254 246 242 240 240 239 236 233 232 231 230 229 229 227 224 221 217 216 217 221 224 228 233 233 224
219 216 210 204 205 211 213 216 218 214 209 206 208 216 220 223 226 227 227 229 229 230 229 228 228 229 229 229 231 231 233 234 235 235 235 234 235 236 237 244 248 249 254 260 261 263 264 262 264 267 266 266 271 279 286 289 290 290 286 278 268 256 247 243 240 240 237 232 229 227 228 228 227 228 225 223 222 222 225 230 233 233 234 230 221
223 223 218 209 206 209 210 214 213 206 209 213 211 214 221 226 228 229 231 232 231 231 231 230 229 230 231 231 231 232 234 236 238 238 240 241 242 244 244 245 249 252 255 257 260 263 263 260 260 260 258 259 263 270 278 284 289 292 291 284 274 264 254 247 242 241 238 235 231 228 228 229 228 228 226 225 225 227 230 235 237 235 230 226 222
222 225 220 212 208 208 212 213 207 204 214 218 213 214 221 228 230 231 232 233 233 233 233 233 233 232 231 232 231 232 235 238 240 241 243 245 246 247 248 248 250 252 253 254 255 257 257 256 255 256 254 254 257 262 269 275 283 289 290 287 278 269 260 252 245 241 238 236 233 229 228 229 229 228 227 226 227 228 230 232 233 230 226 225 224
218 222 218 212 210 214 221 219 208 205 213 218 216 216 221 229 231 231 232 233 234 234 234 235 236 237 235 233 233 234 238 240 242 243 244 246 248 248 249 249 249 250 251 252 250 248 248 250 249 251 252 250 251 255 259 267 275 281 286 287 282 273 264 257 249 242 238 236 234 232 230 229 230 230 229 229 230 230 230 231 232 230 227 225 225
221 222 219 217 219 224 230 226 213 206 211 218 218 216 221 229 230 230 232 232 234 235 235 236 237 240 241 240 238 238 241 243 244 245 246 247 249 249 249 249 248 248 249 251 251 246 243 244 244 245 250 250 248 249 252 259 266 273 278 282 282 278 268 260 255 248 242 239 237 236 234 234 234 234 233 232 233 234 233 232 232 231 231 230 228
231 231 228 228 232 235 237 231 217 207 210 218 219 218 221 227 229 229 231 232 233 234 236 237 238 239 241 242 241 240 242 245 247 248 249 249 249 250 250 249 249 249 249 250 253 249 244 243 242 241 246 250 249 247 248 253 259 264 269 273 276 278 273 264 258 254 248 244 242 241 241 240 241 241 240 238 237 237 236 235 235 233 233 234 234
229 234 236 237 240 242 241 232 218 210 211 217 220 221 222 225 227 228 231 233 233 232 234 237 239 240 240 241 241 241 242 245 248 250 250 250 250 250 250 249 248 250 250 251 254 253 249 246 243 239 240 246 248 245 244 248 252 256 261 265 269 273 274 269 263 258 252 249 247 245 245 246 247 247 247 246 244 242 242 242 241 241 239 238 240
227 229 234 238 242 246 247 234 218 212 213 216 219 221 223 224 225 227 232 236 234 232 233 235 238 240 240 240 240 240 242 243 245 247 248 248 249 249 249 248 248 249 251 252 254 254 251 248 246 242 239 242 244 243 241 243 248 252 255 260 263 266 270 271 269 263 257 253 251 249 248 249 250 252 251 249 247 245 244 244 244 246 246 247 248
231 231 232 235 239 242 247 239 222 216 217 220 222 224 225 226 227 230 235 237 234 235 237 237 238 239 239 239 238 238 240 241 241 242 244 247 249 249 248 247 248 250 251 252 254 254 253 250 249 246 244 243 243 243 241 241 245 250 252 256 260 261 263 267 270 269 264 259 253 251 250 250 250 251 252 251 249 246 245 244 244 244 247 251 254
235 234 234 234 236 236 238 239 228 222 223 225 227 228 227 228 230 234 239 239 237 239 240 239 240 240 239 238 237 238 239 239 239 240 242 244 247 249 249 248 249 251 252 252 253 254 254 252 250 249 248 247 245 245 244 241 244 248 251 254 258 259 259 259 263 267 269 266 261 256 254 253 251 251 251 251 251 249 248 247 247 247 248 251 255
237 237 236 235 235 234 233 233 231 229 230 232 233 233 231 230 232 235 240 241 241 242 242 239 237 238 238 238 238 239 240 240 241 241 242 243 245 248 249 249 250 252 253 253 253 254 254 254 254 253 251 249 247 246 245 243 243 246 250 253 257 259 260 258 258 262 266 268 267 264 261 258 256 254 253 252 252 252 252 251 252 252 253 255 257
240 240 239 238 236 234 232 231 231 231 233 234 234 233 232 229 228 229 232 235 237 239 241 238 235 236 237 237 239 241 241 242 243 242 241 242 245 247 248 249 251 253 255 255 255 255 255 255 256 257 256 252 248 246 246 245 243 245 248 252 255 259 262 261 260 259 262 265 267 267 265 263 260 258 256 254 253 253 254 255 256 256 258 260 262
242 242 242 241 239 236 234 233 232 232 233 232 230 229 228 224 222 224 227 231 233 235 239 239 238 238 239 239 239 240 241 243 244 244 242 242 245 247 249 250 250 252 256 257 258 257 256 256 256 258 258 255 250 247 247 246 245 245 247 250 254 258 260 262 262 259 259 261 263 265 266 266 264 262 260 258 257 256 256 256 258 259 261 263 264
243 245 245 244 242 240 238 236 235 234 234 234 233 231 229 226 224 225 228 233 236 238 241 243 243 244 245 243 240 239 240 243 245 246 244 244 246 248 250 249 248 250 255 257 259 259 257 256 257 258 258 257 255 253 252 250 250 250 251 252 254 257 259 260 261 260 261 261 261 263 264 266 267 266 265 264 262 260 259 259 259 259 261 263 265
243 244 246 246 246 245 243 240 238 237 236 236 236 236 235 233 231 230 232 235 238 240 242 244 245 244 244 243 240 237 238 242 245 245 246 247 248 249 251 251 248 248 252 254 257 257 256 255 255 255 255 254 255 255 255 256 256 256 256 256 256 257 260 261 260 260 262 263 263 263 263 264 266 266 267 268 267 266 265 263 261 261 263 265 267
242 242 243 244 245 246 247 246 244 242 240 238 237 237 237 237 237 236 236 237 238 240 242 244 245 244 241 239 236 234 235 239 242 244 245 246 246 246 248 251 250 249 249 251 251 252 251 250 249 250 251 252 252 251 251 253 256 257 257 258 258 259 261 262 262 262 262 263 265 265 264 264 263 264 266 268 268 268 267 267 266 268 270 270 269
241 239 239 240 240 241 245 248 248 246 243 241 239 239 239 239 240 240 240 241 241 241 242 243 244 244 243 239 235 231 231 234 237 239 240 241 242 242 245 248 250 250 251 251 248 246 245 245 245 248 251 254 254 252 251 251 254 258 259 260 261 261 261 261 263 264 265 265 266 265 265 265 264 263 264 266 267 268 269 270 270 271 272 272 272
240 237 237 237 236 236 238 242 246 248 249 248 245 243 241 241 242 244 245 246 246 245 245 245 245 245 244 241 237 233 230 230 232 235 236 238 240 242 244 245 247 249 251 251 250 248 247 248 249 250 252 255 255 255 256 257 260 262 263 264 264 263 263 263 264 266 267 268 268 267 267 267 267 265 263 264 266 267 269 270 270 271 272 273 274
243 236 235 235 235 236 236 239 244 247 250 250 248 245 243 242 243 244 246 248 248 248 247 246 246 246 245 243 241 238 236 235 236 238 240 241 241 242 244 245 246 247 249 250 251 251 251 252 253 253 254 256 257 258 260 262 263 264 264 265 266 266 265 264 264 266 267 268 269 270 270 270 271 270 269 267 266 266 267 268 268 269 270 271 272
11 246 235 236 237 238 239 240 242 244 244 245 245 246 246 245 244 244 245 247 249 249 250 249 248 247 247 246 244 243 241 240 240 241 242 243 243 242 243 244 245 246 247 248 250 252 252 252 253 253 254 257 260 263 264 264 262 263 264 263 264 266 266 264 262 263 265 267 269 271 272 273 274 274 274 273 270 266 265 265 266 267 268 268 270
33 36 308 243 241 242 242 243 243 244 244 244 243 243 244 245 245 244 245 246 248 249 251 251 251 250 249 248 248 247 246 245 245 245 245 246 247 247 247 247 246 245 245 247 248 250 252 253 253 252 252 254 257 261 263 264 263 262 262 261 261 262 264 264 264 262 263 265 268 271 273 276 277 276 277 277 274 270 267 264 264 266 268 268 269
19 29 32 354 262 249 248 248 248 248 248 247 246 244 243 243 244 245 245 246 247 248 250 251 252 252 252 251 251 250 250 250 250 250 251 253 254 254 254 253 252 250 249 248 248 249 251 252 252 252 252 252 254 257 259 262 263 262 261 259 258 260 263 265 265 265 265 266 267 269 271 275 276 277 278 276 272 272 271 268 266 266 267 269 269
0 4 4 4 355 307 268 258 256 256 254 254 253 251 248 245 244 245 246 246 247 249 250 251 253 254 255 255 255 255 254 253 253 253 254 255 257 257 257 257 257 255 254 253 252 252 252 252 252 252 252 252 253 254 255 257 260 262 262 261 262 263 265 266 267 268 268 267 267 268 270 272 273 274 276 274 272 272 272 272 271 269 266 266 268
336 340 342 341 342 341 319 284 268 261 259 258 257 257 255 253 251 249 248 248 249 249 250 252 253 254 255 256 257 258 257 256 256 255 255 255 256 257 257 258 258 258 257 256 256 256 255 255 254 253 253 253 254 254 254 255 257 259 260 262 264 265 265 266 267 269 269 268 267 267 269 270 271 274 275 275 274 273 272 272 273 270 267 265 264
289 289 296 304 310 306 291 279 266 254 254 253 253 255 256 256 256 255 254 254 253 253 253 254 254 255 256 256 256 256 257 257 257 257 256 256 256 256 257 257 258 258 258 258 258 258 257 257 257 256 255 255 255 255 255 255 255 256 257 259 260 261 263 265 267 268 268 268 268 267 267 269 272 274 275 274 273 272 272 271 271 271 270 267 265